TimeCST,TemperatureF,Dew PointF,Humidity,Sea Level PressureIn,VisibilityMPH,Wind Direction,Wind SpeedMPH,Gust SpeedMPH,PrecipitationIn,Events,Conditions,WindDirDegrees,DateUTC
12:54 AM,39.9,23.0,51,29.81,10.0,South,18.4,-,N/A,,Clear,170,2011-11-18 06:54:00
1:54 AM,39.0,24.1,55,29.79,10.0,South,17.3,-,N/A,,Clear,180,2011-11-18 07:54:00
2:54 AM,39.0,24.1,55,29.78,10.0,South,19.6,-,N/A,,Clear,180,2011-11-18 08:54:00
3:54 AM,39.0,24.1,55,29.75,10.0,South,20.7,28.8,N/A,,Clear,190,2011-11-18 09:54:00
4:54 AM,37.9,25.0,60,29.75,10.0,South,13.8,-,N/A,,Clear,170,2011-11-18 10:54:00
5:54 AM,37.9,25.0,60,29.73,10.0,South,17.3,-,N/A,,Clear,190,2011-11-18 11:54:00
6:54 AM,37.0,26.1,65,29.74,10.0,South,15.0,-,N/A,,Clear,180,2011-11-18 12:54:00
7:54 AM,37.9,27.0,65,29.75,10.0,South,15.0,-,N/A,,Clear,180,2011-11-18 13:54:00
8:54 AM,43.0,28.0,56,29.74,10.0,South,17.3,-,N/A,,Clear,170,2011-11-18 14:54:00
9:54 AM,46.0,28.9,51,29.72,10.0,South,21.9,27.6,N/A,,Clear,190,2011-11-18 15:54:00
10:54 AM,50.0,30.0,46,29.70,10.0,South,21.9,27.6,N/A,,Clear,190,2011-11-18 16:54:00
12:54 PM,55.0,30.9,40,29.63,10.0,South,21.9,29.9,N/A,,Clear,190,2011-11-18 18:54:00
1:54 PM,55.9,30.9,39,29.61,10.0,South,20.7,28.8,N/A,,Clear,190,2011-11-18 19:54:00
3:54 PM,55.9,32.0,40,29.62,10.0,South,17.3,-,N/A,,Clear,190,2011-11-18 21:54:00
4:54 PM,50.0,30.0,46,29.65,10.0,SSW,4.6,-,N/A,,Clear,200,2011-11-18 22:54:00
5:54 PM,41.0,27.0,57,29.65,7.0,South,8.1,-,N/A,,Clear,170,2011-11-18 23:54:00
6:54 PM,39.9,28.0,63,29.67,7.0,Calm,Calm,-,N/A,,Clear,0,2011-11-19 00:54:00
7:54 PM,35.1,25.0,67,29.68,9.0,North,3.5,-,N/A,,Clear,350,2011-11-19 01:54:00
8:54 PM,33.1,25.0,72,29.67,10.0,NNW,3.5,-,N/A,,Clear,330,2011-11-19 02:54:00
9:54 PM,30.0,19.0,64,29.68,9.0,Calm,Calm,-,N/A,,Clear,0,2011-11-19 03:54:00
10:54 PM,28.9,21.0,72,29.67,8.0,NNW,9.2,-,N/A,,Clear,330,2011-11-19 04:54:00
11:54 PM,30.0,21.9,72,29.68,10.0,NNW,6.9,-,N/A,,Clear,340,2011-11-19 05:54:00